Location: Unspecified
(0.0000°N, 0.0000°E)
Time: 18:23:50
(UTC+00:00)

Vanguard 1 - Pass Details

Date: 22 April 2026
Orbit: 654 x 3817 km, 34.2° (Epoch: 18 May)

Event Time Altitude Azimuth Distance (km) Brightness Sun altitude
Rises 05:06:04 0° 313° (NW) 6,926 14.1 -12.8°
Reaches altitude 10° 05:11:34 10° 317° (NW) 5,425 13.5 -11.5°
Maximum altitude 05:25:18 53° 30° (NNE) 1,990 11.9 -8.1°
Drops below altitude 10° 05:32:44 10° 106° (ESE) 3,047 13.7 -6.3°
Sets 05:34:57 0° 111° (ESE) 3,756 14.1 -5.8°
